| time (UTC) | temp F | wind direction | speed MPH | gust MPH | rain 1hr in | rain 24hr in | rain mn in | humidity % | barometer mb |
| 20260903115319 | 58 | 135 | 0.0 | 14.0 | 0.00 | 0.00 | 0.00 | 91 | 1010.7 |
| 20260903114818 | 58 | 144 | 0.0 | 14.0 | 0.00 | 0.00 | 0.00 | 92 | 1010.7 |
| 20260903114318 | 58 | 145 | 0.0 | 14.0 | 0.00 | 0.00 | 0.00 | 92 | 1010.7 |
| 20260903113817 | 58 | 140 | 0.0 | 14.0 | 0.00 | 0.00 | 0.00 | 91 | 1010.7 |
| 20260903112801 | 58 | 137 | 0.0 | 14.0 | 0.00 | 0.00 | 0.00 | 90 | 1010.9 |
| 20260903112300 | 58 | 157 | 0.0 | 14.0 | 0.00 | 0.00 | 0.00 | 89 | 1010.9 |
| 20260903111759 | 58 | 160 | 0.0 | 14.0 | 0.00 | 0.00 | 0.00 | 89 | 1011.1 |
| 20260903111259 | 58 | 150 | 0.0 | 14.0 | 0.00 | 0.00 | 0.00 | 89 | 1011.1 |
| 20260903110758 | 58 | 150 | 0.0 | 14.0 | 0.00 | 0.00 | 0.00 | 89 | 1011.0 |
| 20260903110258 | 58 | 150 | 0.0 | 14.0 | 0.00 | 0.00 | 0.00 | 89 | 1011.3 |
| 20260903105758 | 58 | 140 | 0.0 | 14.0 | 0.00 | 0.00 | 0.00 | 89 | 1011.4 |
| 20260903105257 | 58 | 123 | 0.0 | 14.0 | 0.00 | 0.00 | 0.00 | 89 | 1011.2 |
| 20260903104756 | 58 | 121 | 0.0 | 14.0 | 0.00 | 0.00 | 0.00 | 89 | 1011.3 |
| 20260903104255 | 58 | 119 | 0.0 | 14.0 | 0.00 | 0.00 | 0.00 | 88 | 1011.5 |
| 20260903103754 | 58 | 167 | 0.0 | 14.0 | 0.00 | 0.00 | 0.00 | 89 | 1011.4 |
| 20260903103253 | 58 | 151 | 0.0 | 14.0 | 0.00 | 0.00 | 0.00 | 88 | 1011.6 |
| 20260903102752 | 58 | 141 | 0.0 | 14.0 | 0.00 | 0.00 | 0.00 | 88 | 1011.8 |
| 20260903102251 | 58 | 140 | 0.0 | 14.0 | 0.00 | 0.00 | 0.00 | 88 | 1011.7 |
| 20260903101751 | 58 | 141 | 0.0 | 14.0 | 0.00 | 0.00 | 0.00 | 87 | 1011.8 |
| 20260903101251 | 58 | 140 | 0.0 | 14.0 | 0.00 | 0.00 | 0.00 | 87 | 1011.5 |
| 20260903100750 | 58 | 141 | 0.0 | 14.0 | 0.00 | 0.00 | 0.00 | 87 | 1012.0 |
| 20260903100250 | 58 | 121 | 0.0 | 14.0 | 0.00 | 0.00 | 0.00 | 87 | 1011.9 |
| 20260903095234 | 58 | 145 | 0.0 | 14.0 | 0.00 | 0.00 | 0.00 | 86 | 1011.8 |
| 20260903094733 | 58 | 139 | 0.0 | 14.0 | 0.00 | 0.00 | 0.00 | 86 | 1012.1 |
| 20260903094232 | 57 | 168 | 0.0 | 14.0 | 0.00 | 0.00 | 0.00 | 86 | 1012.2 |
| 20260903093731 | 57 | 172 | 0.0 | 14.0 | 0.00 | 0.00 | 0.00 | 86 | 1012.0 |
| 20260903093230 | 57 | 182 | 0.0 | 14.0 | 0.00 | 0.00 | 0.00 | 86 | 1012.3 |
| 20260903092729 | 57 | 173 | 0.0 | 14.0 | 0.00 | 0.00 | 0.00 | 86 | 1012.3 |
| 20260903092228 | 57 | 175 | 0.0 | 14.0 | 0.00 | 0.00 | 0.00 | 85 | 1012.2 |
| 20260903091727 | 57 | 163 | 0.0 | 14.0 | 0.00 | 0.00 | 0.00 | 85 | 1012.2 |
| 20260903091227 | 57 | 136 | 0.0 | 14.0 | 0.00 | 0.00 | 0.00 | 85 | 1012.3 |
| 20260903090726 | 58 | 120 | 0.0 | 14.0 | 0.00 | 0.00 | 0.00 | 84 | 1012.0 |
| 20260903090225 | 57 | 116 | 0.0 | 14.0 | 0.00 | 0.00 | 0.00 | 85 | 1012.2 |
| 20260903085725 | 57 | 201 | 0.0 | 14.0 | 0.00 | 0.00 | 0.00 | 84 | 1012.2 |
| 20260903085225 | 57 | 204 | 0.0 | 14.0 | 0.00 | 0.00 | 0.00 | 84 | 1012.5 |
| 20260903084724 | 57 | 153 | 0.0 | 14.0 | 0.00 | 0.00 | 0.00 | 84 | 1012.5 |
| 20260903084223 | 57 | 330 | 0.0 | 14.0 | 0.00 | 0.00 | 0.00 | 84 | 1012.4 |
| 20260903083207 | 57 | 134 | 0.0 | 14.0 | 0.00 | 0.00 | 0.00 | 85 | 1012.5 |
| 20260903082706 | 57 | 153 | 0.0 | 14.0 | 0.00 | 0.00 | 0.00 | 85 | 1012.6 |
| 20260903082206 | 57 | 132 | 0.0 | 14.0 | 0.00 | 0.00 | 0.00 | 85 | 1012.5 |
| 20260903081705 | 57 | 157 | 0.0 | 14.0 | 0.00 | 0.00 | 0.00 | 85 | 1012.4 |
| 20260903081205 | 56 | 179 | 0.0 | 14.0 | 0.00 | 0.00 | 0.00 | 85 | 1012.3 |
| 20260903080704 | 56 | 160 | 0.0 | 14.0 | 0.00 | 0.00 | 0.00 | 86 | 1012.6 |
| 20260903080204 | 56 | 152 | 0.0 | 14.0 | 0.00 | 0.00 | 0.00 | 86 | 1012.7 |
| 20260903075704 | 56 | 148 | 0.0 | 14.0 | 0.00 | 0.00 | 0.00 | 86 | 1012.7 |
| 20260903074647 | 55 | 153 | 0.0 | 14.0 | 0.00 | 0.00 | 0.00 | 87 | 1012.9 |
| 20260903074146 | 55 | 318 | 0.0 | 14.0 | 0.00 | 0.00 | 0.00 | 87 | 1012.6 |
| 20260903073645 | 54 | 145 | 0.0 | 14.0 | 0.00 | 0.00 | 0.00 | 87 | 1012.7 |
| 20260903073145 | 54 | 138 | 0.0 | 14.0 | 0.00 | 0.00 | 0.00 | 87 | 1013.0 |
| 20260903072644 | 54 | 147 | 0.0 | 14.0 | 0.00 | 0.00 | 0.00 | 88 | 1012.5 |
| 20260903071628 | 54 | 158 | 0.0 | 14.0 | 0.00 | 0.00 | 0.00 | 89 | 1012.8 |
| 20260903071128 | 54 | 157 | 0.0 | 14.0 | 0.00 | 0.00 | 0.00 | 89 | 1012.6 |
| 20260903070627 | 53 | 166 | 0.0 | 14.0 | 0.00 | 0.00 | 0.00 | 89 | 1012.6 |
| 20260903070126 | 53 | 157 | 0.0 | 14.0 | 0.00 | 0.00 | 0.00 | 90 | 1012.9 |
| 20260903065625 | 52 | 144 | 0.0 | 14.0 | 0.00 | 0.00 | 0.00 | 92 | 1012.8 |
| 20260903064609 | 51 | 161 | 0.0 | 14.0 | 0.00 | 0.00 | 0.00 | 92 | 1013.0 |
| 20260903064108 | 51 | 148 | 0.0 | 14.0 | 0.00 | 0.00 | 0.00 | 92 | 1013.0 |
| 20260903063608 | 51 | 152 | 0.0 | 14.0 | 0.00 | 0.00 | 0.00 | 93 | 1013.0 |
| 20260903063108 | 51 | 159 | 0.0 | 14.0 | 0.00 | 0.00 | 0.00 | 94 | 1013.1 |
| 20260903062608 | 50 | 169 | 0.0 | 14.0 | 0.00 | 0.00 | 0.00 | 94 | 1013.1 |
| 20260903062107 | 50 | 165 | 0.0 | 14.0 | 0.00 | 0.00 | 0.00 | 95 | 1013.3 |
| 20260903061606 | 50 | 164 | 0.0 | 14.0 | 0.00 | 0.00 | 0.00 | 95 | 1013.1 |
| 20260903061105 | 49 | 147 | 0.0 | 14.0 | 0.00 | 0.00 | 0.00 | 96 | 1013.4 |
| 20260903060604 | 49 | 191 | 0.0 | 14.0 | 0.00 | 0.00 | 0.00 | 96 | 1013.3 |
| 20260903055033 | 48 | 135 | 0.0 | 14.0 | 0.00 | 0.00 | 0.00 | 96 | 1013.1 |
| 20260903054533 | 48 | 147 | 0.0 | 14.0 | 0.00 | 0.00 | 0.00 | 96 | 1013.1 |
| 20260903054032 | 48 | 149 | 0.0 | 14.0 | 0.00 | 0.00 | 0.00 | 97 | 1013.2 |
| 20260903053016 | 47 | 150 | 0.0 | 14.0 | 0.00 | 0.00 | 0.00 | 97 | 1013.5 |
| 20260903052515 | 46 | 146 | 0.0 | 14.0 | 0.00 | 0.00 | 0.00 | 97 | 1013.4 |
| 20260903050943 | 45 | 146 | 0.0 | 14.0 | 0.00 | 0.00 | 0.00 | 96 | 1013.8 |
| 20260903045927 | 45 | 182 | 0.0 | 14.0 | 0.00 | 0.00 | 0.00 | 96 | 1013.9 |
| 20260903044912 | 45 | 185 | 0.0 | 14.0 | 0.00 | 0.00 | 0.00 | 96 | 1013.9 |
| 20260903044412 | 45 | 186 | 0.0 | 14.0 | 0.00 | 0.00 | 0.00 | 95 | 1013.6 |
| 20260903043912 | 45 | 185 | 0.0 | 14.0 | 0.00 | 0.00 | 0.00 | 95 | 1013.6 |
| 20260903043411 | 45 | 181 | 0.0 | 14.0 | 0.00 | 0.00 | 0.00 | 95 | 1013.5 |
| 20260903042911 | 45 | 146 | 0.0 | 14.0 | 0.00 | 0.00 | 0.00 | 95 | 1013.7 |
| 20260903041854 | 45 | 140 | 0.0 | 14.0 | 0.00 | 0.00 | 0.00 | 95 | 1013.8 |
| 20260903041353 | 46 | 136 | 0.0 | 14.0 | 0.00 | 0.00 | 0.00 | 95 | 1013.8 |
| 20260903040853 | 46 | 135 | 0.0 | 14.0 | 0.00 | 0.00 | 0.00 | 95 | 1013.5 |
| 20260903040353 | 46 | 140 | 0.0 | 14.0 | 0.00 | 0.00 | 0.00 | 95 | 1013.9 |
| 20260903035853 | 46 | 137 | 0.0 | 14.0 | 0.00 | 0.00 | 0.00 | 94 | 1013.8 |
| 20260903035353 | 46 | 137 | 0.0 | 14.0 | 0.00 | 0.00 | 0.00 | 94 | 1013.7 |
| 20260903034852 | 46 | 138 | 0.0 | 14.0 | 0.00 | 0.00 | 0.00 | 94 | 1013.5 |
| 20260903034352 | 46 | 137 | 0.0 | 14.0 | 0.00 | 0.00 | 0.00 | 94 | 1013.9 |
| 20260903033337 | 47 | 132 | 0.0 | 14.0 | 0.00 | 0.00 | 0.00 | 94 | 1013.6 |
| 20260903032321 | 47 | 133 | 0.0 | 14.0 | 0.00 | 0.00 | 0.00 | 94 | 1013.9 |
| 20260903031820 | 47 | 133 | 0.0 | 14.0 | 0.00 | 0.00 | 0.00 | 94 | 1013.9 |
| 20260903031319 | 47 | 134 | 0.0 | 14.0 | 0.00 | 0.00 | 0.00 | 94 | 1013.8 |
| 20260903030819 | 47 | 136 | 0.0 | 14.0 | 0.00 | 0.00 | 0.00 | 93 | 1013.7 |
| 20260903030318 | 48 | 134 | 0.0 | 14.0 | 0.00 | 0.00 | 0.00 | 93 | 1014.0 |
| 20260903025817 | 48 | 134 | 0.0 | 14.0 | 0.00 | 0.00 | 0.00 | 93 | 1013.9 |
| 20260903025317 | 48 | 131 | 0.0 | 14.0 | 0.00 | 0.00 | 0.00 | 93 | 1013.9 |
| 20260903024301 | 49 | 130 | 0.0 | 14.0 | 0.00 | 0.00 | 0.00 | 93 | 1014.0 |
| 20260903023800 | 49 | 246 | 0.0 | 14.0 | 0.00 | 0.00 | 0.00 | 93 | 1014.1 |
| 20260903023300 | 49 | 246 | 0.0 | 14.0 | 0.00 | 0.00 | 0.00 | 93 | 1013.8 |
| 20260903022759 | 49 | 249 | 0.0 | 14.0 | 0.00 | 0.00 | 0.00 | 92 | 1013.6 |
| 20260903022259 | 49 | 247 | 0.0 | 14.0 | 0.00 | 0.00 | 0.00 | 92 | 1014.0 |
| 20260903021759 | 49 | 249 | 0.0 | 14.0 | 0.00 | 0.00 | 0.00 | 92 | 1013.8 |
| 20260903021258 | 50 | 250 | 0.0 | 14.0 | 0.00 | 0.00 | 0.00 | 92 | 1014.0 |
| 20260903020758 | 50 | 249 | 0.0 | 14.0 | 0.00 | 0.00 | 0.00 | 91 | 1013.7 |
| 20260903020258 | 50 | 248 | 0.0 | 14.0 | 0.00 | 0.00 | 0.00 | 91 | 1013.9 |
| 20260903015242 | 50 | 241 | 0.0 | 14.0 | 0.00 | 0.00 | 0.00 | 91 | 1014.0 |
| 20260903014742 | 50 | 243 | 0.0 | 14.0 | 0.00 | 0.00 | 0.00 | 91 | 1014.0 |
| 20260903013725 | 51 | 242 | 0.0 | 14.0 | 0.00 | 0.00 | 0.00 | 91 | 1013.9 |
| 20260903013224 | 51 | 240 | 0.0 | 14.0 | 0.00 | 0.00 | 0.00 | 91 | 1014.1 |
| 20260903012723 | 51 | 240 | 0.0 | 14.0 | 0.00 | 0.00 | 0.00 | 91 | 1014.0 |
| 20260903012223 | 51 | 241 | 0.0 | 14.0 | 0.00 | 0.00 | 0.00 | 90 | 1014.1 |
| 20260903011207 | 51 | 240 | 0.0 | 14.0 | 0.00 | 0.00 | 0.00 | 90 | 1013.9 |
| 20260903010707 | 51 | 240 | 0.0 | 14.0 | 0.00 | 0.00 | 0.00 | 90 | 1014.0 |
| 20260903010207 | 51 | 242 | 0.0 | 14.0 | 0.00 | 0.00 | 0.00 | 90 | 1014.0 |
| 20260903005707 | 51 | 244 | 0.0 | 14.0 | 0.00 | 0.00 | 0.00 | 90 | 1014.0 |
| 20260903005207 | 51 | 246 | 0.0 | 14.0 | 0.00 | 0.00 | 0.00 | 90 | 1014.2 |
| 20260903004706 | 51 | 248 | 0.0 | 14.0 | 0.00 | 0.00 | 0.00 | 90 | 1014.1 |
| 20260903004205 | 51 | 205 | 0.0 | 14.0 | 0.00 | 0.00 | 0.00 | 89 | 1014.3 |
| 20260903003705 | 51 | 201 | 0.0 | 14.0 | 0.00 | 0.00 | 0.00 | 89 | 1014.2 |
| 20260903003204 | 51 | 197 | 0.0 | 14.0 | 0.00 | 0.00 | 0.00 | 89 | 1014.3 |
| 20260903002148 | 51 | 248 | 0.0 | 14.0 | 0.00 | 0.00 | 0.00 | 90 | 1014.0 |
| 20260903001648 | 51 | 215 | 0.0 | 14.0 | 0.00 | 0.00 | 0.00 | 90 | 1014.2 |
| 20260903001147 | 51 | 247 | 0.0 | 14.0 | 0.00 | 0.00 | 0.00 | 90 | 1014.0 |
| 20260903000647 | 51 | 244 | 0.0 | 14.0 | 0.00 | 0.00 | 0.00 | 90 | 1014.0 |
| 20260902234601 | 51 | 246 | 0.0 | 14.0 | 0.00 | 0.00 | 0.00 | 90 | 1014.4 |
| 20260902234100 | 51 | 231 | 0.0 | 14.0 | 0.00 | 0.00 | 0.00 | 90 | 1013.8 |
| 20260902233559 | 51 | 205 | 0.0 | 14.0 | 0.00 | 0.00 | 0.00 | 90 | 1014.4 |
| 20260902232543 | 51 | 241 | 0.0 | 14.0 | 0.00 | 0.00 | 0.00 | 90 | 1014.2 |
| 20260902232042 | 52 | 218 | 0.0 | 14.0 | 0.00 | 0.00 | 0.00 | 90 | 1014.5 |
| 20260902231542 | 52 | 203 | 0.0 | 14.0 | 0.00 | 0.00 | 0.00 | 90 | 1014.5 |
| 20260902231042 | 52 | 256 | 0.0 | 14.0 | 0.00 | 0.00 | 0.00 | 90 | 1014.6 |
| 20260902230542 | 52 | 217 | 0.0 | 14.0 | 0.00 | 0.00 | 0.00 | 90 | 1014.2 |
| 20260902230042 | 52 | 299 | 0.0 | 14.0 | 0.00 | 0.00 | 0.00 | 90 | 1014.0 |
| 20260902225542 | 52 | 276 | 0.0 | 14.0 | 0.00 | 0.00 | 0.00 | 90 | 1014.4 |
| 20260902225041 | 52 | 227 | 0.0 | 14.0 | 0.00 | 0.00 | 0.00 | 90 | 1014.2 |
| 20260902224540 | 52 | 199 | 0.0 | 14.0 | 0.00 | 0.00 | 0.00 | 90 | 1014.3 |
| 20260902224039 | 52 | 208 | 0.0 | 14.0 | 0.00 | 0.00 | 0.00 | 90 | 1014.4 |
| 20260902223539 | 52 | 200 | 0.0 | 14.0 | 0.00 | 0.00 | 0.00 | 90 | 1014.8 |
| 20260902223039 | 52 | 199 | 0.0 | 14.0 | 0.00 | 0.00 | 0.00 | 90 | 1014.6 |
| 20260902222538 | 52 | 292 | 0.0 | 14.0 | 0.00 | 0.00 | 0.00 | 90 | 1014.1 |
| 20260902222037 | 52 | 200 | 0.0 | 14.0 | 0.00 | 0.00 | 0.00 | 90 | 1014.5 |
| 20260902221536 | 52 | 198 | 0.0 | 14.0 | 0.00 | 0.00 | 0.00 | 90 | 1014.6 |
| 20260902221036 | 53 | 198 | 0.0 | 14.0 | 0.00 | 0.00 | 0.00 | 90 | 1014.7 |
| 20260902220021 | 53 | 272 | 0.0 | 14.0 | 0.00 | 0.00 | 0.00 | 90 | 1014.2 |
| 20260902215521 | 53 | 248 | 0.0 | 14.0 | 0.00 | 0.00 | 0.03 | 90 | 1014.3 |
| 20260902215020 | 53 | 356 | 0.0 | 14.0 | 0.00 | 0.00 | 0.03 | 90 | 1014.6 |
| 20260902214520 | 53 | 297 | 0.0 | 14.0 | 0.00 | 0.00 | 0.03 | 90 | 1014.4 |
| 20260902214020 | 53 | 289 | 0.0 | 14.0 | 0.00 | 0.00 | 0.03 | 90 | 1014.4 |
| 20260902213519 | 53 | 238 | 0.0 | 14.0 | 0.00 | 0.00 | 0.03 | 90 | 1014.2 |
| 20260902213019 | 53 | 232 | 1.0 | 14.0 | 0.00 | 0.00 | 0.03 | 90 | 1014.3 |
| 20260902212518 | 53 | 240 | 0.0 | 14.0 | 0.00 | 0.00 | 0.03 | 90 | 1014.0 |
| 20260902212017 | 53 | 229 | 0.0 | 14.0 | 0.00 | 0.00 | 0.03 | 90 | 1014.2 |
| 20260902211516 | 54 | 236 | 0.0 | 14.0 | 0.00 | 0.00 | 0.03 | 90 | 1014.1 |
| 20260902211014 | 54 | 205 | 0.0 | 14.0 | 0.00 | 0.00 | 0.03 | 90 | 1014.5 |
| 20260902210513 | 54 | 218 | 0.0 | 14.0 | 0.00 | 0.00 | 0.03 | 91 | 1014.7 |
| 20260902210012 | 54 | 5 | 0.0 | 14.0 | 0.00 | 0.00 | 0.03 | 91 | 1014.4 |
| 20260902205512 | 54 | 358 | 0.0 | 14.0 | 0.00 | 0.00 | 0.03 | 92 | 1014.3 |
| 20260902205012 | 54 | 193 | 0.0 | 14.0 | 0.00 | 0.00 | 0.03 | 92 | 1014.7 |
| 20260902204512 | 54 | 179 | 0.0 | 14.0 | 0.00 | 0.00 | 0.03 | 92 | 1014.5 |
| 20260902203456 | 54 | 28 | 0.0 | 14.0 | 0.00 | 0.00 | 0.03 | 92 | 1014.1 |
| 20260902202955 | 54 | 171 | 0.0 | 14.0 | 0.00 | 0.00 | 0.03 | 93 | 1014.3 |
| 20260902201423 | 54 | 198 | 0.0 | 14.0 | 0.00 | 0.00 | 0.03 | 92 | 1014.4 |
| 20260902200922 | 55 | 197 | 0.0 | 14.0 | 0.00 | 0.00 | 0.03 | 92 | 1014.3 |
| 20260902200422 | 55 | 208 | 0.0 | 14.0 | 0.00 | 0.00 | 0.03 | 92 | 1014.3 |
| 20260902195921 | 55 | 238 | 0.0 | 14.0 | 0.00 | 0.00 | 0.03 | 93 | 1013.9 |
| 20260902194350 | 55 | 249 | 0.0 | 14.0 | 0.00 | 0.00 | 0.03 | 92 | 1014.1 |
| 20260902193849 | 55 | 249 | 0.0 | 14.0 | 0.00 | 0.00 | 0.03 | 92 | 1013.8 |
| 20260902193348 | 55 | 251 | 0.0 | 14.0 | 0.00 | 0.00 | 0.03 | 91 | 1014.1 |
| 20260902192848 | 56 | 251 | 0.0 | 14.0 | 0.00 | 0.00 | 0.03 | 91 | 1014.0 |
| 20260902192347 | 56 | 251 | 0.0 | 14.0 | 0.00 | 0.00 | 0.03 | 91 | 1014.1 |
| 20260902191846 | 56 | 251 | 0.0 | 14.0 | 0.00 | 0.00 | 0.03 | 91 | 1013.9 |
| 20260902191345 | 56 | 251 | 0.0 | 14.0 | 0.00 | 0.00 | 0.03 | 91 | 1013.9 |
| 20260902190844 | 56 | 248 | 0.0 | 14.0 | 0.00 | 0.00 | 0.03 | 91 | 1014.0 |
| 20260902190343 | 57 | 251 | 0.0 | 14.0 | 0.00 | 0.00 | 0.03 | 91 | 1013.9 |
| 20260902185842 | 57 | 237 | 0.0 | 14.0 | 0.00 | 0.00 | 0.03 | 91 | 1014.0 |
| 20260902185342 | 57 | 186 | 0.0 | 14.0 | 0.00 | 0.00 | 0.03 | 90 | 1014.0 |
| 20260902184841 | 57 | 184 | 0.0 | 14.0 | 0.00 | 0.00 | 0.03 | 90 | 1014.2 |
| 20260902183824 | 58 | 257 | 0.0 | 14.0 | 0.00 | 0.00 | 0.03 | 90 | 1013.9 |
| 20260902183325 | 58 | 250 | 0.0 | 14.0 | 0.00 | 0.00 | 0.03 | 89 | 1014.0 |
| 20260902182824 | 58 | 252 | 0.0 | 14.0 | 0.00 | 0.00 | 0.03 | 89 | 1013.9 |
| 20260902182324 | 58 | 225 | 0.0 | 14.0 | 0.00 | 0.00 | 0.03 | 89 | 1014.2 |
| 20260902181307 | 59 | 234 | 0.0 | 14.0 | 0.00 | 0.00 | 0.03 | 89 | 1013.6 |
| 20260902180806 | 59 | 232 | 0.0 | 14.0 | 0.00 | 0.00 | 0.03 | 89 | 1014.0 |
| 20260902180306 | 59 | 169 | 0.0 | 14.0 | 0.00 | 0.00 | 0.03 | 89 | 1013.6 |
| 20260902175805 | 59 | 203 | 0.0 | 14.0 | 0.00 | 0.00 | 0.03 | 89 | 1013.7 |
| 20260902175307 | 59 | 279 | 0.0 | 14.0 | 0.00 | 0.00 | 0.03 | 89 | 1013.6 |
| 20260902174806 | 59 | 254 | 0.0 | 14.0 | 0.00 | 0.00 | 0.03 | 88 | 1013.8 |
| 20260902174304 | 59 | 255 | 0.0 | 14.0 | 0.00 | 0.00 | 0.03 | 88 | 1013.6 |
| 20260902173803 | 59 | 245 | 0.0 | 14.0 | 0.00 | 0.00 | 0.03 | 88 | 1013.1 |
| 20260902173303 | 59 | 245 | 0.0 | 14.0 | 0.00 | 0.00 | 0.03 | 88 | 1013.4 |
| 20260902172804 | 60 | 239 | 0.0 | 14.0 | 0.00 | 0.00 | 0.03 | 87 | 1013.6 |
| 20260902172307 | 60 | 204 | 0.0 | 14.0 | 0.00 | 0.00 | 0.03 | 87 | 1013.4 |
| 20260902171801 | 60 | 218 | 0.0 | 14.0 | 0.00 | 0.00 | 0.03 | 86 | 1013.6 |
| 20260902171301 | 60 | 252 | 0.0 | 14.0 | 0.00 | 0.00 | 0.03 | 86 | 1013.9 |
| 20260902165728 | 60 | 200 | 0.0 | 14.0 | 0.00 | 0.00 | 0.03 | 87 | 1013.9 |
| 20260902165227 | 61 | 287 | 0.0 | 14.0 | 0.00 | 0.00 | 0.03 | 87 | 1013.5 |
| 20260902164211 | 62 | 239 | 0.0 | 14.0 | 0.00 | 0.00 | 0.03 | 86 | 1013.7 |
| 20260902163712 | 62 | 268 | 0.0 | 14.0 | 0.00 | 0.00 | 0.03 | 86 | 1013.7 |
| 20260902163211 | 62 | 235 | 0.0 | 14.0 | 0.00 | 0.00 | 0.03 | 88 | 1013.4 |
| 20260902162712 | 61 | 240 | 0.0 | 14.0 | 0.00 | 0.00 | 0.03 | 88 | 1013.8 |
| 20260902162211 | 61 | 288 | 0.0 | 14.0 | 0.00 | 0.00 | 0.03 | 90 | 1013.5 |
| 20260902161709 | 60 | 211 | 1.0 | 14.0 | 0.00 | 0.00 | 0.03 | 90 | 1013.3 |
| 20260902161209 | 60 | 246 | 0.0 | 14.0 | 0.00 | 0.00 | 0.03 | 91 | 1013.6 |
| 20260902160709 | 60 | 205 | 0.0 | 14.0 | 0.00 | 0.00 | 0.03 | 91 | 1013.9 |
| 20260902160208 | 60 | 228 | 0.0 | 14.0 | 0.00 | 0.00 | 0.03 | 91 | 1014.1 |
| 20260902155708 | 61 | 237 | 0.0 | 14.0 | 0.00 | 0.00 | 0.03 | 91 | 1013.6 |
| 20260902154653 | 61 | 247 | 1.0 | 14.0 | 0.00 | 0.00 | 0.03 | 91 | 1013.5 |
| 20260902153638 | 61 | 243 | 0.0 | 14.0 | 0.00 | 0.00 | 0.03 | 90 | 1013.6 |
| 20260902153137 | 61 | 242 | 1.0 | 14.0 | 0.00 | 0.00 | 0.03 | 90 | 1013.5 |
| 20260902152120 | 61 | 228 | 1.0 | 14.0 | 0.00 | 0.00 | 0.03 | 89 | 1013.8 |
| 20260902151619 | 61 | 224 | 1.0 | 14.0 | 0.01 | 0.00 | 0.03 | 90 | 1013.4 |
| 20260902151118 | 61 | 173 | 2.0 | 14.0 | 0.01 | 0.00 | 0.03 | 90 | 1013.8 |
| 20260902150618 | 61 | 210 | 1.0 | 14.0 | 0.01 | 0.00 | 0.03 | 91 | 1013.5 |
| 20260902150118 | 61 | 178 | 0.0 | 14.0 | 0.01 | 0.00 | 0.03 | 91 | 1013.6 |
| 20260902145617 | 61 | 217 | 1.0 | 14.0 | 0.01 | 0.00 | 0.03 | 91 | 1013.6 |
| 20260902145116 | 61 | 265 | 1.0 | 14.0 | 0.01 | 0.00 | 0.03 | 91 | 1013.8 |
| 20260902144616 | 61 | 262 | 0.0 | 14.0 | 0.01 | 0.00 | 0.03 | 91 | 1013.6 |
| 20260902144116 | 61 | 214 | 2.0 | 14.0 | 0.01 | 0.00 | 0.03 | 90 | 1013.8 |
| 20260902143616 | 61 | 259 | 0.0 | 14.0 | 0.00 | 0.00 | 0.02 | 90 | 1013.8 |
| 20260902143115 | 61 | 201 | 1.0 | 14.0 | 0.00 | 0.00 | 0.02 | 90 | 1013.8 |
| 20260902142615 | 61 | 231 | 1.0 | 14.0 | 0.00 | 0.00 | 0.02 | 89 | 1013.9 |
| 20260902142115 | 61 | 211 | 1.0 | 14.0 | 0.00 | 0.00 | 0.02 | 88 | 1013.8 |
| 20260902141615 | 62 | 290 | 0.0 | 14.0 | 0.00 | 0.00 | 0.01 | 86 | 1013.8 |
| 20260902140558 | 64 | 218 | 0.0 | 14.0 | 0.00 | 0.00 | 0.01 | 80 | 1013.5 |
| 20260902140057 | 65 | 188 | 3.0 | 14.0 | 0.00 | 0.00 | 0.01 | 76 | 1013.7 |
| 20260902135557 | 65 | 255 | 1.0 | 11.0 | 0.00 | 0.00 | 0.01 | 74 | 1013.4 |
| 20260902135056 | 65 | 226 | 2.0 | 11.0 | 0.00 | 0.00 | 0.01 | 72 | 1014.2 |
| 20260902134556 | 65 | 159 | 0.0 | 11.0 | 0.00 | 0.00 | 0.01 | 75 | 1013.8 |
| 20260902134055 | 64 | 255 | 0.0 | 11.0 | 0.00 | 0.00 | 0.01 | 75 | 1013.3 |
| 20260902133554 | 64 | 222 | 2.0 | 11.0 | 0.00 | 0.00 | 0.01 | 75 | 1014.0 |
| 20260902132024 | 65 | 234 | 1.0 | 11.0 | 0.00 | 0.00 | 0.01 | 77 | 1013.5 |
| 20260902131523 | 65 | 127 | 1.0 | 11.0 | 0.00 | 0.00 | 0.01 | 78 | 1013.6 |
| 20260902130508 | 64 | 200 | 2.0 | 11.0 | 0.00 | 0.00 | 0.01 | 80 | 1013.6 |
| 20260902130007 | 64 | 204 | 0.0 | 11.0 | 0.00 | 0.00 | 0.01 | 81 | 1013.9 |
| 20260902125506 | 64 | 268 | 0.0 | 11.0 | 0.00 | 0.00 | 0.01 | 82 | 1013.8 |
| 20260902125006 | 64 | 237 | 1.0 | 11.0 | 0.00 | 0.00 | 0.01 | 81 | 1013.8 |
| 20260902124505 | 64 | 236 | 2.0 | 11.0 | 0.00 | 0.00 | 0.01 | 82 | 1013.9 |
| 20260902124005 | 63 | 198 | 2.0 | 11.0 | 0.00 | 0.00 | 0.01 | 82 | 1014.1 |
| 20260902123505 | 63 | 205 | 4.0 | 11.0 | 0.00 | 0.00 | 0.01 | 80 | 1013.8 |
| 20260902123004 | 63 | 212 | 3.0 | 11.0 | 0.00 | 0.00 | 0.01 | 80 | 1013.6 |
| 20260902122503 | 63 | 196 | 2.0 | 11.0 | 0.00 | 0.00 | 0.01 | 80 | 1014.0 |
| 20260902120930 | 64 | 224 | 1.0 | 11.0 | 0.00 | 0.00 | 0.01 | 79 | 1014.0 |
| 20260902120430 | 65 | 228 | 1.0 | 12.0 | 0.00 | 0.00 | 0.01 | 76 | 1013.9 |
| 20260902115928 | 65 | 218 | 1.0 | 12.0 | 0.00 | 0.00 | 0.01 | 75 | 1014.0 |